Location: Austin
(30.3000°N, 97.7500°W)
Time: 03:31:39
(UTC-06:00)

Cosmos 2322 - Pass Details

Date: 20 November 2023
Orbit: 842 x 852 km, 71.0° (Epoch: 04 December)

Event Time Altitude Azimuth Distance (km) Brightness Sun altitude
Rises 18:24:46 0° 340° (NNW) 3,401 6.9 -11.5°
Reaches altitude 10° 18:27:13 10° 341° (NNW) 2,462 6.2 -12.0°
Maximum altitude 18:32:52 86° 69° (ENE) 847 3.7 -13.2°
Drops below altitude 10° 18:38:30 10° 160° (SSE) 2,449 6.1 -14.4°
Sets 18:40:56 0° 161° (SSE) 3,382 6.8 -14.9°
